EUTELSAT 36B

Last updated on Tue Jul 01 2025 00:02:45 GMT+0000 (Coordinated Universal Time)

1 36101U 09065A 25181.57787700 .00000111 00000+0 00000+0 0 9990 2 36101 0.0538 15.7796 0005831 83.2695 78.3482 1.00273570 57182
UTC large
Height (km)
Speed (km/s)
/
Latitude / Longitude
Inclination (degrees)
Orbital Period (minutes)
Azimuth
Elevation
Range (km)
Doppler Factor

Next 0 passes for location: London (51.5072 / 0.1276)

Sorry there are no passes over London.